Simultaneous Nadir Overpasses (SNOs) Predictions

Prediction of SNOs between NOAA-20 and AQUA Satellite Orbit:

Table of predicted SNOs for the next 14.0 days since TLE Epoch: 2/14/2020
Index Date (NOAA-20) Time (NOAA-20) Lat,Lon (NOAA-20) SZA (NOAA-20 ) Date (AQUA) Time (AQUA) Lat,Lon (AQUA) SZA (AQUA ) Distance(km) Time Diff (sec)
1 02/17/2020 05:56:45 -75.24, 147.62 69.32 02/17/2020 05:57:19 -75.25, 147.67 69.36 1.69 34
2 02/17/2020 06:47:00 76.57, -40.59 109.07 02/17/2020 06:46:17 76.57, -40.65 109.12 1.68 43
3 02/19/2020 22:13:31 -75.74, -95.06 70.84 02/19/2020 22:13:40 -75.74, -95.06 70.85 0.17 9
4 02/19/2020 23:03:56 76.60, 75.29 108.10 02/19/2020 23:02:47 76.61, 75.37 108.14 2.25 69
5 02/22/2020 13:39:58 74.92,-149.10 109.19 02/22/2020 13:40:58 74.92,-149.09 109.13 0.36 60
6 02/22/2020 14:30:15 -76.27, 22.53 72.45 02/22/2020 14:29:59 -76.27, 22.45 72.41 2.27 16
7 02/25/2020 05:56:42 75.51, -31.56 107.51 02/25/2020 05:57:17 75.51, -31.62 107.49 1.99 35
8 02/25/2020 06:47:09 -76.39, 138.72 73.57 02/25/2020 06:46:27 -76.40, 138.75 73.55 0.90 42
9 02/27/2020 22:13:35 75.68, 84.74 106.31 02/27/2020 22:13:44 75.68, 84.77 106.29 1.04 9




NCC Satellite Simultaneous Nadir Overpasses (SNOs) Prediction Service
